When you browse on this site, cookies collect data to enhance your experience and personalize the content and advertising you see.
Visit our Privacy Policy to learn more. By continuing to use the site, you agree to this use of cookies and data.

Meteo pe oră la Shostka

Astăzi, 13 Iulie, Luni

Timp Temperatura Precipitaţii Vânt Presiune Umiditate
00:00 +19°C° 0.3 mm 4 m/s 744 mmHg 96%
01:00 +18°C° 0.3 mm 4 m/s 744 mmHg 97%
02:00 +18°C° 0 mm 4 m/s 744 mmHg 96%
03:00 +18°C° 0.1 mm 4 m/s 744 mmHg 96%
04:00 +18°C° 0.1 mm 4 m/s 744 mmHg 96%
05:00 +18°C° 0.1 mm 4 m/s 743 mmHg 96%
06:00 +17°C° 0 mm 4 m/s 743 mmHg 95%
07:00 +16°C° 0 mm 5 m/s 743 mmHg 95%
08:00 +16°C° 0 mm 5 m/s 743 mmHg 94%
09:00 +16°C° 0 mm 5 m/s 743 mmHg 93%
10:00 +16°C° 0 mm 5 m/s 743 mmHg 93%
11:00 +16°C° 0 mm 5 m/s 743 mmHg 92%
12:00 +15°C° 0 mm 5 m/s 743 mmHg 91%
13:00 +15°C° 0 mm 6 m/s 743 mmHg 90%
14:00 +15°C° 0 mm 6 m/s 743 mmHg 89%
15:00 +15°C° 0 mm 6 m/s 743 mmHg 88%
16:00 +15°C° 0 mm 6 m/s 743 mmHg 88%
17:00 +14°C° 0 mm 6 m/s 743 mmHg 88%
18:00 +14°C° 0 mm 6 m/s 743 mmHg 88%
19:00 +14°C° 0 mm 6 m/s 743 mmHg 87%
20:00 +14°C° 0 mm 5 m/s 743 mmHg 87%
21:00 +14°C° 0 mm 6 m/s 742 mmHg 87%
22:00 +14°C° 0 mm 6 m/s 742 mmHg 87%
23:00 +14°C° 0 mm 6 m/s 742 mmHg 87%

Mâine, 14 Iulie, Marţi

Timp Temperatura Precipitaţii Vânt Presiune Umiditate
00:00 +14°C° 0 mm 6 m/s 742 mmHg 87%
01:00 +14°C° 0 mm 6 m/s 741 mmHg 87%
02:00 +14°C° 0 mm 6 m/s 741 mmHg 86%
03:00 +13°C° 0.1 mm 6 m/s 741 mmHg 88%
04:00 +13°C° 0.1 mm 6 m/s 741 mmHg 90%
05:00 +13°C° 0.1 mm 6 m/s 740 mmHg 92%
06:00 +13°C° 0.2 mm 6 m/s 740 mmHg 92%
07:00 +13°C° 0.2 mm 6 m/s 741 mmHg 92%
08:00 +14°C° 0.2 mm 6 m/s 741 mmHg 93%
09:00 +14°C° 0.4 mm 6 m/s 741 mmHg 92%
10:00 +14°C° 0.4 mm 7 m/s 741 mmHg 92%
11:00 +14°C° 0.4 mm 7 m/s 741 mmHg 92%
12:00 +15°C° 0.1 mm 6 m/s 741 mmHg 91%
13:00 +15°C° 0.1 mm 6 m/s 741 mmHg 90%
14:00 +16°C° 0.1 mm 6 m/s 741 mmHg 89%
15:00 +15°C° 0.2 mm 6 m/s 741 mmHg 90%
16:00 +15°C° 0.2 mm 5 m/s 741 mmHg 91%
17:00 +15°C° 0.2 mm 5 m/s 741 mmHg 92%
18:00 +15°C° 0.6 mm 5 m/s 741 mmHg 93%
19:00 +15°C° 0.6 mm 5 m/s 741 mmHg 93%
20:00 +15°C° 0.6 mm 6 m/s 741 mmHg 93%
21:00 +14°C° 1.2 mm 6 m/s 741 mmHg 93%
22:00 +14°C° 1.2 mm 6 m/s 741 mmHg 94%
23:00 +14°C° 1.2 mm 6 m/s 741 mmHg 95%

Poimâine, 15 Iulie, Miercuri

Timp Temperatura Precipitaţii Vânt Presiune Umiditate
00:00 +14°C° 0.3 mm 5 m/s 741 mmHg 94%
01:00 +14°C° 0.3 mm 5 m/s 742 mmHg 94%
02:00 +14°C° 0.3 mm 4 m/s 742 mmHg 93%
03:00 +13°C° 0 mm 5 m/s 742 mmHg 93%
04:00 +13°C° 0 mm 5 m/s 742 mmHg 92%
05:00 +13°C° 0 mm 5 m/s 742 mmHg 92%
06:00 +14°C° 0 mm 5 m/s 743 mmHg 88%
07:00 +15°C° 0 mm 5 m/s 743 mmHg 83%
08:00 +16°C° 0 mm 5 m/s 744 mmHg 79%
09:00 +17°C° 0.1 mm 6 m/s 744 mmHg 74%
10:00 +19°C° 0.1 mm 6 m/s 744 mmHg 69%
11:00 +20°C° 0.1 mm 7 m/s 744 mmHg 63%
12:00 +20°C° 0.1 mm 7 m/s 744 mmHg 62%
13:00 +20°C° 0.1 mm 7 m/s 745 mmHg 61%
14:00 +21°C° 0.1 mm 7 m/s 745 mmHg 60%
15:00 +20°C° 0 mm 6 m/s 745 mmHg 64%
16:00 +20°C° 0 mm 5 m/s 745 mmHg 67%
17:00 +20°C° 0 mm 4 m/s 745 mmHg 70%
18:00 +18°C° 0 mm 3 m/s 745 mmHg 74%
19:00 +17°C° 0 mm 3 m/s 746 mmHg 79%
20:00 +15°C° 0 mm 2 m/s 746 mmHg 83%
21:00 +15°C° 0 mm 2 m/s 746 mmHg 84%
22:00 +14°C° 0 mm 2 m/s 746 mmHg 86%
23:00 +13°C° 0 mm 2 m/s 746 mmHg 87%

16 Iulie, Joi

Timp Temperatura Precipitaţii Vânt Presiune Umiditate
00:00 +13°C° 0 mm 2 m/s 746 mmHg 88%
01:00 +13°C° 0 mm 2 m/s 746 mmHg 90%
02:00 +12°C° 0 mm 2 m/s 746 mmHg 91%
03:00 +12°C° 0 mm 2 m/s 746 mmHg 90%
04:00 +12°C° 0 mm 2 m/s 746 mmHg 89%
05:00 +12°C° 0 mm 2 m/s 746 mmHg 87%
06:00 +13°C° 0 mm 3 m/s 746 mmHg 83%
07:00 +16°C° 0 mm 3 m/s 746 mmHg 78%
08:00 +18°C° 0 mm 3 m/s 746 mmHg 73%
09:00 +19°C° 0 mm 3 m/s 746 mmHg 68%
10:00 +20°C° 0 mm 3 m/s 746 mmHg 63%
11:00 +22°C° 0 mm 3 m/s 746 mmHg 59%
12:00 +22°C° 0 mm 3 m/s 746 mmHg 58%
13:00 +22°C° 0 mm 3 m/s 746 mmHg 57%
14:00 +24°C° 0 mm 3 m/s 746 mmHg 56%
15:00 +24°C° 0 mm 3 m/s 745 mmHg 59%
16:00 +22°C° 0 mm 3 m/s 745 mmHg 61%
17:00 +22°C° 0 mm 3 m/s 745 mmHg 64%
18:00 +20°C° 0 mm 2 m/s 745 mmHg 69%
19:00 +19°C° 0 mm 2 m/s 745 mmHg 75%
20:00 +18°C° 0 mm 1 m/s 745 mmHg 80%
21:00 +16°C° 0 mm 1 m/s 745 mmHg 82%
22:00 +15°C° 0 mm 1 m/s 746 mmHg 83%
23:00 +15°C° 0 mm 1 m/s 746 mmHg 85%

17 Iulie, Vineri

Timp Temperatura Precipitaţii Vânt Presiune Umiditate
00:00 +14°C° 0 mm 1 m/s 746 mmHg 85%
01:00 +14°C° 0 mm 1 m/s 745 mmHg 86%
02:00 +14°C° 0 mm 1 m/s 745 mmHg 86%
03:00 +14°C° 0 mm 1 m/s 746 mmHg 86%
04:00 +14°C° 0 mm 1 m/s 746 mmHg 86%
05:00 +14°C° 0 mm 1 m/s 746 mmHg 86%
06:00 +16°C° 0 mm 1 m/s 746 mmHg 81%
07:00 +19°C° 0 mm 1 m/s 746 mmHg 76%
08:00 +21°C° 0 mm 1 m/s 746 mmHg 71%
09:00 +22°C° 0 mm 1 m/s 746 mmHg 66%
10:00 +23°C° 0 mm 2 m/s 746 mmHg 62%
11:00 +24°C° 0 mm 2 m/s 747 mmHg 57%
12:00 +25°C° 0 mm 2 m/s 746 mmHg 55%
13:00 +25°C° 0 mm 2 m/s 746 mmHg 54%
14:00 +26°C° 0 mm 2 m/s 746 mmHg 52%
15:00 +25°C° 0 mm 2 m/s 746 mmHg 54%
16:00 +25°C° 0 mm 2 m/s 746 mmHg 57%
17:00 +25°C° 0 mm 2 m/s 746 mmHg 60%
18:00 +23°C° 0 mm 2 m/s 746 mmHg 66%
19:00 +21°C° 0 mm 1 m/s 746 mmHg 72%
20:00 +19°C° 0 mm 1 m/s 746 mmHg 78%
21:00 +19°C° 0 mm 1 m/s 747 mmHg 80%
22:00 +18°C° 0 mm 1 m/s 747 mmHg 82%
23:00 +16°C° 0 mm 1 m/s 747 mmHg 85%

18 Iulie, Sâmbătă

Timp Temperatura Precipitaţii Vânt Presiune Umiditate
00:00 +16°C° 0 mm 1 m/s 747 mmHg 85%
01:00 +15°C° 0 mm 1 m/s 747 mmHg 86%
02:00 +15°C° 0 mm 1 m/s 747 mmHg 87%
03:00 +15°C° 0 mm 1 m/s 747 mmHg 87%
04:00 +15°C° 0 mm 1 m/s 747 mmHg 87%
05:00 +16°C° 0 mm 1 m/s 747 mmHg 87%
06:00 +19°C° 0 mm 1 m/s 748 mmHg 81%
07:00 +20°C° 0 mm 1 m/s 748 mmHg 76%
08:00 +20°C° 0 mm 0 m/s 748 mmHg 71%
09:00 +21°C° 0 mm 0 m/s 748 mmHg 66%
10:00 +25°C° 0 mm 1 m/s 748 mmHg 62%
11:00 +26°C° 0 mm 1 m/s 748 mmHg 57%
12:00 +26°C° 0.1 mm 1 m/s 748 mmHg 56%
13:00 +26°C° 0.1 mm 1 m/s 748 mmHg 55%
14:00 +26°C° 0.1 mm 1 m/s 748 mmHg 54%
15:00 +25°C° 0.6 mm 2 m/s 747 mmHg 61%
16:00 +25°C° 0.6 mm 2 m/s 747 mmHg 68%
17:00 +24°C° 0.6 mm 3 m/s 747 mmHg 75%
18:00 +21°C° 0.6 mm 3 m/s 747 mmHg 80%
19:00 +19°C° 0.6 mm 3 m/s 747 mmHg 85%
20:00 +18°C° 0.6 mm 4 m/s 747 mmHg 91%
21:00 +17°C° 1.7 mm 3 m/s 748 mmHg 92%
22:00 +16°C° 1.7 mm 3 m/s 748 mmHg 93%
23:00 +16°C° 1.7 mm 2 m/s 748 mmHg 95%
Arată mai mult